Tracking 30995 objects as of 6-Jul-2025
HD Live streaming from Space Station
objects crossing your sky now

FENGYUN 1C DEB

Track FENGYUN 1C DEB now!
10-day predictions


NORAD ID: 33724
Int'l Code: 1999-025DHM
Perigee: 816.2 km
Apogee: 853.7 km
Inclination: 98.6 °
Period: 101.5 minutes
Semi major axis: 7205 km
RCS: 0.0006 m2 (small)
Launch date: May 10, 1999
Source: People's Republic of China (PRC)
Launch site: Taiyaun Space Center, China (TSC)

Note: This is SATELLITE DEBRIS
Your satellite tracking list
Your tracking list is empty




NASA's NSSDC Master Catalog

Two Line Element Set (TLE):
1 33724U 99025DHM 25185.78530888  .00000623  00000-0  31657-3 0  9998
2 33724  98.6076 200.6121 0026029 289.0660 247.2665 14.19272207916787
Source of the keplerian elements: AFSPC